Location: Newark
(48.0000°N, 67.0000°E)
Time: 05:17:53
(UTC+00:00)

DUCHIFAT 1 - Pass Details

Date: 06 April 2020
Orbit: 586 x 604 km, 97.9° (Epoch: 27 May)

Event Time Altitude Azimuth Distance (km) Brightness Sun altitude
Rises 21:19:33 0° 8° (N) 2,840 ? -30.4°
Reaches altitude 10° 21:21:46 10° 3° (N) 1,931 ? -30.2°
Enters shadow 21:23:48 26° 350° (N) 1,170 ? -30.0°
